Temperature
19 19 19 19 18 18 17 17 16 16 15 14 13 13 12 12 12 12 11 11 11 10 10 10 9 9 9 9 9 9 9 9 9 9 9 9 9 9 8 8 8 7 7
19 19 19 19 19 18 18 17 17 16 15 15 14 13 13 12 12 12 11 11 11 10 10 10 10 9 9 9 9 9 9 9 9 8 8 8 8 8 8 8 8 7 7
19 19 19 19 19 18 18 18 17 16 16 15 14 13 12 12 12 11 11 11 11 10 10 10 10 9 9 9 9 9 9 9 8 8 8 7 7 7 8 8 7 7 6
19 19 19 19 19 19 18 18 17 16 16 15 14 13 13 12 13 12 12 11 11 10 10 10 10 9 9 9 9 9 8 8 8 8 8 7 7 6 6 7 7 6 6
19 19 19 19 19 19 18 17 17 16 16 15 14 13 13 13 12 12 12 11 11 11 10 10 10 9 9 9 9 8 8 8 8 8 7 7 7 6 5 6 6 6 6
19 19 19 19 19 18 18 17 17 16 15 15 14 13 13 13 12 12 12 11 11 11 10 10 10 9 9 9 9 8 8 8 8 7 7 7 6 6 5 5 5 5 5
19 19 19 19 19 18 18 17 17 16 16 15 14 14 13 13 12 12 12 11 11 11 10 10 9 9 9 9 8 8 8 8 7 7 7 6 6 6 5 4 4 4 4
19 19 19 19 19 18 18 17 17 16 16 15 14 14 13 12 12 12 11 11 11 11 10 10 9 9 9 9 8 8 8 7 7 7 6 6 6 5 5 4 3 3 3
19 19 19 19 18 18 18 17 17 16 16 15 14 14 13 12 12 12 11 11 11 10 10 10 9 9 9 8 8 8 8 7 7 6 6 6 5 5 4 4 3 2 1
19 19 19 18 18 18 18 17 17 16 16 15 14 14 13 13 12 11 11 11 10 10 10 9 9 9 8 8 8 8 7 7 6 6 6 5 5 4 4 3 3 2 1
18 18 18 18 18 18 17 17 16 16 15 15 14 14 13 12 12 11 11 11 10 10 9 9 9 8 8 8 7 7 7 6 6 6 5 5 4 4 3 3 2 2 1
18 18 18 18 18 17 17 17 16 16 15 15 14 14 13 12 12 11 11 10 10 9 9 9 8 8 8 7 7 7 6 6 6 5 5 4 4 3 3 2 2 1 1
18 18 18 18 17 17 17 16 16 16 15 14 14 13 13 12 12 11 11 10 10 9 9 8 8 8 7 7 7 6 6 6 5 5 4 4 3 3 2 2 1 1 -0
17 17 17 17 17 17 16 16 16 15 15 14 13 13 12 12 11 11 10 10 9 9 9 8 8 7 7 7 6 6 5 5 5 4 4 3 3 2 2 1 0 -0 -1
17 17 17 17 17 17 16 16 15 15 14 13 13 13 12 11 11 11 10 10 9 9 8 8 7 7 6 6 6 5 5 5 4 4 3 2 2 1 1 0 -0 -1 -1
17 17 17 17 17 16 16 15 15 14 14 13 13 12 11 11 11 10 10 9 9 8 8 7 7 7 6 6 5 5 4 4 3 3 2 2 1 1 0 -0 -1 -2 -2
17 17 17 17 17 16 16 15 15 14 13 13 12 11 11 10 10 10 9 9 8 8 7 7 6 6 6 5 5 4 4 3 3 2 2 1 1 -0 -1 -1 -2 -2 -3
17 17 17 17 16 16 15 15 14 13 13 12 12 11 10 10 9 9 9 8 8 7 7 6 6 6 5 4 4 3 3 2 2 1 1 0 -0 -1 -1 -2 -2 -3 -3
17 17 16 16 16 15 15 14 14 13 12 12 11 10 10 9 9 8 8 7 7 6 6 6 5 5 4 4 3 3 2 1 1 0 -0 -1 -1 -2 -2 -3 -3 -3 -4
16 16 16 15 15 15 14 14 13 12 12 11 10 10 9 9 8 8 7 7 6 6 5 5 5 4 4 3 2 2 1 0 -0 -0 -1 -2 -2 -2 -3 -4 -4 -4 -4
15 15 15 15 14 14 13 13 12 12 11 10 10 9 8 8 7 7 6 6 5 5 4 4 4 3 3 2 1 1 -0 -1 -1 -1 -2 -2 -3 -3 -4 -4 -5 -5 -5
14 14 14 14 13 13 12 12 12 11 10 10 9 8 8 7 6 6 5 5 4 4 4 3 3 2 2 1 0 -0 -1 -2 -2 -2 -3 -3 -4 -4 -4 -5 -5 -6 -6
14 13 13 13 13 12 12 11 11 10 9 9 8 7 7 6 6 5 5 4 4 3 3 2 2 1 1 0 -1 -1 -2 -2 -3 -3 -4 -4 -5 -5 -5 -6 -6 -6 -7
13 13 13 12 12 11 11 10 10 9 8 8 7 7 6 5 5 4 4 3 3 2 2 1 1 0 -0 -1 -1 -2 -2 -3 -3 -4 -4 -5 -5 -6 -6 -6 -7 -7 -7
12 12 12 12 11 10 10 9 8 8 7 7 6 6 5 4 4 3 3 2 2 1 1 0 -1 -1 -1 -2 -2 -3 -3 -4 -4 -5 -5 -5 -6 -6 -6 -7 -7 -7 -8
12 11 11 10 10 9 9 8 7 7 6 6 5 5 4 4 3 2 2 1 1 0 -0 -1 -1 -2 -2 -3 -3 -4 -4 -5 -5 -6 -6 -6 -7 -7 -7 -8 -8 -8 -9
Wind_Speed
10 7 7 8 8 10 12 14 14 13 12 10 10 9 9 8 7 10 14 15 15 15 12 8 7 7 5 5 5 3 2 1 0 1 3 3 2 1 1 1 0 1 1
7 6 5 7 9 11 13 13 15 14 14 12 10 7 6 6 6 7 10 14 15 14 12 9 7 7 5 5 5 4 3 1 2 2 1 3 4 3 1 2 2 2 2
8 7 6 7 8 10 13 13 14 14 14 12 7 5 4 3 4 6 7 10 14 14 13 12 9 8 7 7 7 6 6 4 2 2 3 2 4 3 3 3 2 3 2
6 6 6 7 9 10 10 11 12 13 13 12 11 11 10 9 10 8 8 8 12 13 14 13 11 9 7 7 7 7 5 5 4 2 2 3 3 3 3 3 3 4 4
6 6 7 8 7 7 8 9 10 11 12 13 14 13 12 10 6 5 8 8 8 11 12 12 11 9 7 8 8 7 7 6 5 4 3 3 2 3 4 5 4 4 4
5 5 5 4 4 5 6 7 9 10 11 13 13 14 13 11 8 8 9 8 7 7 9 10 10 9 8 9 9 8 8 7 6 5 5 4 4 4 5 6 6 5 4
5 5 5 4 4 5 7 8 10 10 11 12 13 14 14 12 13 11 11 9 7 7 10 10 9 8 9 9 8 8 8 8 8 8 6 6 5 4 4 4 5 5 4
5 6 6 6 6 7 7 8 10 10 10 12 12 11 11 10 9 10 10 10 9 10 9 10 10 10 10 9 8 7 8 7 8 9 8 6 6 5 5 4 4 4 4
7 7 6 5 6 6 7 9 10 9 10 11 11 10 11 11 10 9 9 8 8 7 9 9 9 9 9 9 8 7 8 7 8 8 8 6 6 5 6 5 5 5 5
6 6 5 5 5 5 5 6 8 9 8 9 9 9 10 10 9 8 9 9 8 7 8 9 9 9 9 8 8 7 7 8 8 6 7 7 6 5 5 6 6 6 6
8 6 6 4 4 4 4 5 6 7 7 8 8 8 8 8 8 8 9 8 7 8 8 9 9 9 9 8 8 8 8 9 8 7 8 9 7 6 6 5 5 6 6
6 6 5 4 3 4 4 5 6 6 7 7 7 7 7 7 8 8 8 7 8 7 8 8 8 8 8 8 9 9 9 9 10 9 8 9 7 8 6 6 7 7 7
6 5 5 5 5 5 5 5 5 6 5 6 6 6 6 7 8 8 7 7 7 6 6 7 8 8 8 8 9 9 9 9 10 9 9 9 8 8 6 7 7 7 7
7 7 6 6 6 5 5 5 5 5 5 6 6 7 7 7 7 6 6 6 6 6 6 7 7 7 7 7 7 7 8 8 8 8 9 8 9 9 8 7 8 7 7
8 8 7 6 6 5 5 5 5 5 5 6 6 7 6 5 5 5 5 5 5 6 6 6 5 5 5 6 7 7 7 8 7 7 8 8 9 11 9 7 7 7 6
10 9 8 7 7 7 6 5 5 5 5 6 6 5 5 5 5 4 4 4 4 4 4 5 5 5 5 7 9 7 6 7 7 7 6 7 8 11 14 15 13 10 8
11 10 9 9 8 7 7 7 6 5 5 5 5 5 5 5 4 4 4 4 4 3 4 4 4 5 6 7 8 9 5 6 6 6 6 6 6 9 7 11 14 13 16
11 10 8 7 6 5 5 5 5 5 5 5 5 5 5 4 4 4 4 3 3 3 3 4 4 4 5 6 7 7 4 4 5 6 6 6 7 7 7 6 7 8 9
10 8 7 6 5 6 6 6 5 5 5 5 5 5 5 5 4 4 4 3 3 3 3 3 3 3 4 5 6 4 2 3 4 5 5 6 7 11 13 8 8 8 8
6 6 5 4 5 5 6 7 6 6 6 6 5 5 5 5 5 4 3 2 2 2 2 2 2 3 3 5 5 4 2 3 4 4 5 9 9 12 13 8 7 9 8
5 5 6 5 6 6 7 7 6 6 5 4 4 4 4 4 4 3 2 2 2 2 1 1 1 2 3 4 5 5 3 3 4 4 4 5 11 13 14 11 7 10 10
4 5 6 5 4 6 8 7 6 5 5 5 5 4 4 3 3 3 2 2 2 2 1 1 2 2 2 3 5 7 7 6 4 4 4 6 11 12 13 10 11 14 11
5 5 6 5 4 5 7 8 5 5 6 5 5 4 3 3 3 3 3 2 2 2 1 1 2 2 2 3 7 8 9 9 6 5 9 11 12 11 8 10 13 10 4
5 5 6 6 5 5 5 5 5 6 6 6 4 4 4 3 2 2 2 2 2 2 2 2 3 3 3 3 3 3 4 6 6 5 7 10 10 8 8 8 7 4 4
4 5 6 7 6 5 5 5 6 7 6 5 4 4 3 3 2 1 2 2 3 4 3 3 3 3 4 6 8 6 4 3 5 4 2 2 3 3 4 4 4 4 4
4 5 5 5 5 6 5 5 6 7 7 5 4 3 3 2 2 2 1 1 2 4 4 5 5 5 7 10 10 10 10 10 10 7 3 4 4 5 5 5 5 4 5
Wind_Direction
253 240 221 207 194 192 192 193 193 190 182 184 188 191 201 201 201 204 204 201 199 196 193 193 189 184 189 193 181 167 176 212 127 38 341 329 322 322 317 335 326 15 22
269 250 222 200 197 197 197 196 196 190 188 192 189 188 184 194 201 199 202 203 200 198 197 193 191 190 189 187 183 172 168 189 146 138 71 330 328 316 294 295 260 272 309
259 255 227 211 203 202 199 198 196 192 192 184 169 150 143 147 179 199 205 204 202 201 200 198 194 192 189 195 196 187 180 194 198 175 160 180 251 295 300 279 266 270 268
256 250 233 221 213 212 201 196 192 191 188 179 180 182 191 201 204 200 201 198 200 202 203 201 197 194 193 197 199 193 189 177 196 203 210 201 182 206 291 297 279 271 263
257 255 241 229 220 207 197 194 188 190 186 186 190 194 203 209 197 186 194 200 201 203 204 202 198 198 199 202 198 190 193 191 190 189 185 199 211 204 215 272 291 293 264
263 263 253 226 210 192 189 187 188 194 189 191 194 199 204 201 192 195 200 205 204 204 204 203 202 202 201 203 204 200 197 200 199 197 188 183 188 201 203 236 263 279 275
257 261 254 227 212 198 193 190 193 199 194 195 200 204 206 202 203 203 204 203 204 208 209 204 205 206 208 205 200 199 205 202 203 206 208 208 212 190 189 214 248 262 276
252 254 248 231 222 213 200 195 199 204 197 199 206 207 206 207 211 208 204 206 210 213 206 204 207 209 207 205 200 204 209 206 210 214 210 213 218 202 198 200 217 267 276
251 254 253 236 226 219 210 202 203 207 203 203 204 206 207 208 211 208 207 209 211 209 203 203 209 210 207 204 200 209 211 207 212 215 214 217 219 210 212 210 204 215 263
254 258 253 240 230 221 215 204 206 210 207 202 204 208 208 210 210 205 207 209 209 204 200 203 208 209 208 205 203 212 211 208 215 212 212 221 221 216 212 214 216 214 227
245 250 251 244 231 219 207 203 203 206 205 203 203 204 207 206 205 208 211 210 208 204 205 207 208 209 210 206 206 214 208 212 220 215 214 223 216 216 217 214 216 221 219
245 247 247 243 231 224 216 208 204 205 207 200 197 201 203 200 205 212 213 206 206 205 207 206 208 211 212 207 207 215 214 215 221 221 218 227 221 220 220 217 222 228 224
251 252 247 237 231 228 222 216 210 208 201 190 190 195 199 201 208 214 211 204 204 205 204 203 210 214 213 211 213 214 217 218 222 220 220 226 220 227 227 224 229 233 238
247 244 243 239 232 227 222 218 217 201 189 184 187 199 205 207 211 210 206 204 202 203 205 207 212 214 213 213 214 214 218 221 225 225 225 226 222 227 228 231 232 234 239
250 241 237 236 230 225 223 216 210 193 181 182 192 205 204 202 201 202 203 202 202 206 205 207 215 214 211 214 211 213 218 221 228 230 230 230 232 237 239 242 235 229 238
246 242 234 229 226 220 215 209 204 191 175 184 199 198 191 190 195 200 196 194 201 203 200 207 212 218 225 229 225 221 218 220 225 234 237 237 241 251 257 261 262 254 250
242 236 228 223 221 213 201 200 196 175 173 185 190 185 182 188 193 187 183 194 200 196 205 214 213 226 238 241 242 236 225 220 226 230 236 247 248 259 250 262 269 268 268
238 235 224 219 214 193 181 175 167 169 174 181 186 183 178 184 181 177 190 199 193 197 209 217 221 231 250 254 256 252 237 226 230 231 233 241 249 250 255 248 253 254 259
227 222 212 203 188 181 171 158 164 168 174 186 191 188 179 178 178 188 198 195 186 200 210 214 216 230 260 265 264 261 228 233 243 243 240 245 247 265 274 268 261 264 262
219 208 189 174 177 177 159 158 171 175 191 194 189 179 172 174 183 190 188 177 178 197 196 215 220 228 254 270 270 270 226 246 256 257 252 263 271 277 280 270 263 269 270
205 186 173 178 186 166 157 167 175 194 193 168 158 158 165 170 172 164 160 158 159 159 179 227 257 248 262 275 277 279 259 243 254 260 258 259 279 283 284 284 272 277 286
189 177 172 182 173 161 162 173 190 187 154 148 149 154 156 153 148 147 148 147 149 154 187 256 297 284 276 283 282 285 286 284 262 263 259 264 282 286 287 289 287 292 299
193 180 172 171 169 170 170 179 184 156 147 143 149 150 143 139 147 154 157 150 154 170 219 234 270 289 287 289 294 293 295 294 289 271 278 285 289 293 293 292 296 301 298
194 175 164 172 184 179 173 171 158 151 146 148 150 149 145 141 136 146 160 169 186 198 225 244 264 282 289 282 275 271 284 291 293 287 286 292 298 300 296 297 301 296 276
187 175 178 184 184 168 162 155 152 146 143 146 149 148 148 151 149 153 190 201 212 216 227 232 236 256 273 275 287 291 278 272 270 289 284 283 285 282 281 281 279 277 283
177 175 177 175 170 161 159 156 152 149 147 150 154 157 157 157 158 149 9 325 276 280 279 273 272 272 279 290 297 300 301 303 303 307 294 286 281 277 278 280 282 277 275
Height
1477 1479 1481 1484 1486 1489 1492 1495 1498 1501 1504 1507 1510 1513 1515 1518 1521 1523 1525 1527 1529 1530 1531 1532 1533 1533 1534 1534 1534 1534 1533 1533 1532 1531 1529 1528 1527 1526 1525 1524 1523 1522 1521
1472 1474 1476 1478 1481 1484 1486 1489 1492 1496 1499 1502 1505 1508 1511 1514 1516 1519 1521 1523 1525 1526 1527 1528 1529 1530 1530 1530 1530 1530 1530 1529 1529 1528 1526 1525 1524 1522 1522 1521 1520 1519 1518
1468 1469 1471 1474 1476 1479 1481 1484 1488 1491 1494 1497 1501 1504 1507 1509 1512 1513 1516 1518 1520 1522 1523 1524 1525 1526 1526 1526 1526 1527 1526 1526 1525 1525 1524 1522 1520 1519 1517 1516 1516 1515 1514
1465 1466 1468 1470 1472 1474 1477 1480 1483 1486 1489 1493 1496 1498 1500 1502 1505 1508 1510 1513 1515 1517 1518 1519 1520 1521 1521 1522 1522 1522 1522 1522 1521 1520 1520 1519 1518 1516 1513 1512 1511 1510 1509
1463 1463 1465 1466 1468 1471 1473 1476 1479 1482 1485 1488 1490 1493 1495 1498 1501 1503 1505 1508 1510 1511 1513 1514 1515 1516 1516 1517 1517 1517 1517 1517 1516 1516 1515 1514 1513 1512 1510 1506 1505 1504 1503
1460 1461 1462 1463 1465 1467 1469 1472 1475 1477 1480 1483 1485 1488 1490 1493 1495 1497 1499 1502 1503 1505 1507 1508 1509 1510 1511 1511 1512 1512 1511 1511 1511 1510 1509 1509 1508 1506 1505 1502 1499 1497 1497
1457 1458 1459 1460 1462 1464 1466 1468 1471 1473 1476 1478 1480 1482 1485 1487 1489 1491 1493 1495 1497 1499 1500 1502 1503 1504 1504 1505 1506 1505 1505 1505 1505 1504 1503 1503 1502 1501 1499 1497 1494 1491 1489
1455 1455 1456 1458 1459 1461 1463 1465 1467 1469 1471 1473 1475 1477 1479 1482 1483 1486 1487 1489 1491 1492 1494 1495 1496 1497 1498 1499 1499 1499 1499 1499 1498 1498 1497 1496 1496 1495 1494 1492 1490 1485 1482
1452 1453 1454 1456 1457 1459 1460 1461 1463 1465 1466 1468 1470 1472 1474 1476 1477 1479 1481 1483 1485 1486 1488 1489 1490 1491 1492 1492 1492 1492 1492 1492 1491 1491 1490 1490 1489 1489 1488 1486 1485 1483 1477
1449 1450 1452 1453 1455 1456 1457 1458 1459 1461 1462 1464 1465 1467 1468 1470 1472 1473 1475 1477 1478 1480 1481 1482 1483 1484 1484 1485 1485 1485 1485 1485 1484 1484 1483 1483 1482 1482 1481 1480 1478 1476 1473
1446 1448 1449 1451 1452 1453 1454 1455 1455 1457 1458 1459 1461 1462 1463 1465 1466 1467 1469 1470 1472 1473 1474 1475 1476 1477 1477 1478 1478 1478 1478 1478 1477 1477 1476 1476 1476 1475 1474 1473 1471 1469 1467
1443 1444 1446 1447 1448 1449 1450 1451 1452 1453 1454 1455 1456 1457 1458 1459 1460 1462 1463 1465 1466 1467 1468 1469 1469 1470 1471 1471 1471 1471 1471 1471 1470 1470 1469 1469 1468 1467 1466 1465 1463 1462 1459
1439 1441 1442 1443 1444 1445 1446 1447 1448 1449 1450 1451 1452 1453 1454 1455 1455 1457 1458 1459 1460 1461 1462 1462 1463 1464 1464 1464 1464 1464 1464 1463 1463 1463 1462 1461 1461 1459 1459 1457 1456 1454 1452
1435 1436 1437 1438 1440 1441 1442 1443 1444 1445 1445 1446 1447 1448 1449 1450 1451 1452 1453 1454 1455 1455 1456 1456 1457 1457 1457 1457 1458 1457 1457 1456 1456 1455 1455 1454 1453 1452 1451 1450 1448 1447 1444
1431 1432 1433 1434 1436 1437 1438 1439 1440 1440 1441 1442 1443 1444 1445 1446 1447 1447 1448 1449 1449 1450 1450 1451 1451 1451 1451 1451 1451 1450 1450 1449 1448 1448 1448 1447 1446 1445 1444 1442 1440 1439 1436
1426 1427 1429 1430 1431 1432 1434 1435 1435 1436 1437 1438 1439 1440 1440 1441 1442 1443 1443 1444 1444 1445 1445 1445 1445 1445 1445 1445 1444 1444 1443 1442 1441 1440 1440 1439 1438 1437 1436 1435 1433 1432 1430
1421 1422 1423 1425 1427 1428 1429 1430 1431 1432 1433 1433 1434 1435 1436 1436 1437 1438 1438 1439 1439 1439 1439 1439 1439 1439 1439 1439 1438 1437 1436 1435 1434 1433 1432 1431 1430 1429 1428 1426 1425 1424 1422
1416 1417 1419 1420 1422 1423 1425 1426 1427 1427 1428 1429 1430 1430 1431 1432 1432 1433 1433 1434 1434 1434 1434 1433 1433 1433 1433 1432 1431 1430 1429 1428 1427 1426 1425 1424 1423 1422 1420 1418 1416 1415 1414
1411 1412 1414 1416 1417 1419 1420 1421 1422 1423 1424 1424 1425 1426 1426 1427 1428 1428 1428 1428 1428 1428 1428 1428 1428 1427 1427 1426 1425 1424 1422 1421 1420 1419 1418 1417 1415 1415 1413 1411 1409 1407 1405
1405 1407 1409 1410 1412 1413 1415 1416 1417 1418 1419 1420 1420 1421 1422 1422 1423 1423 1423 1423 1423 1423 1423 1422 1422 1421 1421 1420 1419 1417 1416 1414 1413 1412 1412 1411 1409 1408 1406 1404 1402 1399 1397
1399 1401 1403 1404 1406 1408 1410 1411 1412 1413 1414 1415 1416 1417 1417 1418 1418 1418 1419 1418 1418 1418 1417 1417 1416 1416 1415 1414 1413 1411 1410 1408 1407 1405 1404 1403 1402 1401 1399 1398 1396 1393 1391
1393 1395 1397 1399 1401 1403 1404 1405 1407 1408 1409 1410 1411 1412 1413 1413 1414 1414 1414 1414 1413 1412 1412 1411 1410 1410 1409 1408 1406 1406 1405 1403 1401 1399 1398 1396 1395 1394 1392 1391 1389 1387 1384
1388 1390 1392 1393 1396 1398 1399 1401 1402 1403 1404 1406 1407 1407 1408 1409 1409 1409 1409 1409 1408 1407 1406 1405 1404 1403 1403 1402 1401 1400 1399 1397 1396 1394 1392 1390 1389 1387 1385 1383 1382 1380 1377
1383 1384 1386 1388 1390 1392 1394 1396 1397 1399 1400 1401 1402 1403 1403 1404 1404 1404 1404 1404 1403 1402 1401 1400 1399 1398 1397 1396 1395 1394 1392 1391 1389 1387 1385 1384 1382 1380 1378 1376 1375 1373 1371
1378 1380 1381 1383 1385 1387 1389 1391 1392 1394 1395 1396 1397 1398 1399 1399 1399 1399 1400 1399 1398 1398 1397 1395 1394 1393 1391 1391 1390 1389 1387 1385 1383 1381 1379 1377 1375 1373 1371 1369 1368 1366 1364
1373 1375 1376 1378 1380 1382 1384 1386 1388 1389 1390 1391 1392 1393 1394 1394 1394 1394 1394 1394 1394 1393 1392 1391 1390 1388 1387 1385 1384 1383 1381 1379 1378 1376 1373 1371 1369 1367 1365 1363 1361 1359 1357